[[{"header":{"parameterUnit":"m.s-1","parameterCategory":1,"la1":30.2991,"la2":30.254,"lo1":-89.0895,"lo2":-89.0444,"dy":0.0017,"dx":0.0017,"nx":28,"ny":28,"refTime":"2024-05-26T21:00:00:Z","depth":0,"parameterNumber":2,"parameterNumberName":"U-component_of_WINDS"},"data":[0,0,0,0,0,0,0,0,0,0,0,0,0,0,0,0,0,0,0,0,0,0,0,0,0,0,0,0,0,0,0,0,0,0,0,0,0,0,0,0,0,0,0,0,0,0,0,0,0,0,0,0,0,0,0,0,0,0,0.6248,0.6248,0,0.6266,0.6267,0.6267,0.6245,0.6244,0.6243,0.6242,0.6263,0.6264,0.6265,0,0,0,0,0,0,0,0,0,0,0,0,0,0.6195,0.6196,0.6248,0.6248,0.6248,0.6266,0.6267,0.6267,0.6245,0.6244,0.6243,0.6242,0.6263,0.6264,0.6266,0,0,0,0,0,0,0,0,0,0,0,0,0,0.6216,0.6196,0.6248,0.624,0.6239,0.6266,0.6267,0.6267,0.6245,0.6244,0.6243,0.6242,0.6262,0.6264,0.6266,0.6303,0,0,0.6272,0.6273,0,0,0,0,0,0,0,0,0.6215,0.6218,0.6241,0.624,0.624,0.6252,0.6255,0.6279,0.6246,0.6243,0.6242,0.6241,0.626,0.6262,0.6269,0.6304,0.6304,0.6272,0.6273,0.6274,0.6275,0,0,0,0,0,0,0,0.6213,0.6217,0.6255,0.6241,0.624,0.6235,0.6237,0.626,0.6258,0.6243,0.6242,0.6244,0.626,0.6267,0.6269,0.6305,0.6272,0.6274,0.6275,0.6276,0.637,0.6371,0,0,0,0,0,0,0.6213,0.6216,0.6255,0.6256,0.6224,0.6237,0.6239,0.6249,0.6258,0.6258,0.6245,0.6243,0.6264,0.6267,0.627,0.6313,0.6274,0.6276,0.6277,0.6369,0.637,0.6372,0,0,0,0,0,0,0.6212,0.6216,0.6254,0.6235,0.624,0.6239,0.6251,0.625,0.6257,0.6259,0.6259,0.6252,0.6263,0.6267,0.6294,0.6313,0.6277,0.6279,0.6367,0.6369,0.6371,0.64,0,0,0,0,0,0,0.621,0.6216,0.623,0.6236,0.6241,0.6278,0.6252,0.6252,0.626,0.6258,0.6266,0.6266,0.6262,0.6291,0.6296,0.6315,0.628,0.6366,0.6368,0.6371,0.6397,0.6402,0.6407,0,0,0,0,0,0.6208,0.6238,0.6231,0.6235,0.6258,0.6279,0.6282,0.6277,0.6262,0.6276,0.6277,0.6266,0.631,0.6294,0.63,0.632,0.6364,0.6367,0.637,0.6395,0.6401,0.6407,0,0,0,0,0,0,0.6234,0.6238,0.6231,0.6262,0.6271,0.6275,0.6293,0.6284,0.6297,0.6294,0.6287,0.6289,0.6318,0.6322,0.6304,0.6355,0.6335,0.6339,0.6352,0.6358,0.6363,0.6361,0.6282,0,0,0,0,0,0.6243,0.626,0.6263,0.6291,0.6295,0.6293,0.6302,0.6297,0.6306,0.6309,0.6313,0.6321,0.6337,0.6348,0.6363,0.6397,0.6399,0.6414,0.6419,0.6423,0.6426,0.6445,0.6451,0.6382,0.6382,0.6382,0,0,0.6263,0.6267,0.6278,0.6296,0.6302,0.6319,0.6296,0.6316,0.6329,0.6312,0.6338,0.6341,0.635,0.6382,0.6396,0.6386,0.6446,0.6427,0.643,0.6431,0.6448,0.6455,0.6461,0.6384,0.6383,0.6383,0,0,0.6307,0.6312,0.6336,0.6342,0.6351,0.6349,0.6355,0.6361,0.6362,0.6388,0.6376,0.6391,0.6419,0.6426,0.6433,0.648,0.647,0.6485,0.6511,0.6529,0.6534,0.6539,0.6556,0.6562,0.6489,0.6489,0.6489,0,0.6331,0.6356,0.6349,0.6369,0.6378,0.6363,0.6387,0.6393,0.6406,0.6412,0.6401,0.6435,0.644,0.6473,0.6484,0.6491,0.6497,0.6484,0.6534,0.6539,0.6543,0.6559,0.6565,0.6491,0.649,0.649,0.649,0,0.6384,0.6402,0.642,0.6432,0.6443,0.6465,0.6461,0.6473,0.6467,0.6467,0.6493,0.6499,0.6514,0.6522,0.6517,0.6554,0.6547,0.6535,0.6514,0.6552,0.6566,0.6572,0.6493,0.6492,0.6492,0.6491,0,0,0.6445,0.6453,0.646,0.6465,0.6474,0.6488,0.6509,0.6524,0.6533,0.6543,0.6561,0.6584,0.6573,0.6581,0.6577,0.6593,0.6629,0.6578,0.6579,0.6587,0.667,0.6678,0.6685,0.6622,0.6623,0.6624,0.6669,0,0.6489,0.6525,0.652,0.6555,0.6571,0.6558,0.6576,0.6584,0.6584,0.6599,0.6599,0.6616,0.66,0.6605,0.662,0.6621,0.6645,0.6618,0.6639,0.664,0.6636,0.6693,0.6702,0.6744,0.6674,0.6675,0.6676,0,0.6545,0.6556,0.6593,0.6599,0.6605,0.6622,0.6635,0.6649,0.6657,0.6656,0.6665,0.6658,0.6679,0.6659,0.6688,0.667,0.6678,0.668,0.6682,0.6683,0.666,0.6696,0.6757,0.6763,0.6685,0.6684,0.6684,0,0.6585,0.661,0.6635,0.664,0.6647,0.6659,0.6663,0.667,0.6679,0.669,0.6696,0.671,0.6718,0.6729,0.6726,0.6711,0.6756,0.6735,0.6756,0.6756,0.6766,0.6765,0.6829,0.6772,0.6772,0.6772,0.6771,0,0.6635,0.6658,0.6653,0.6668,0.6693,0.6687,0.6712,0.6715,0.6721,0.6736,0.6726,0.6741,0.6736,0.675,0.6748,0.6773,0.6777,0.6777,0.6776,0.6777,0.6777,0.6782,0.6779,0.6773,0.6773,0.6773,0.6772,0,0.6684,0.6681,0.6708,0.6712,0.6714,0.6732,0.6737,0.6751,0.6751,0.6771,0.6775,0.6775,0.6792,0.6789,0.6809,0.6807,0.6838,0.6833,0.6835,0.6833,0.6854,0.6852,0.6923,0.6932,0.687,0.687,0.6871,0,0.6715,0.6732,0.6739,0.6748,0.6753,0.6768,0.6777,0.6772,0.6782,0.6792,0.6806,0.6821,0.6834,0.6861,0.6863,0.6878,0.6873,0.6897,0.6875,0.6877,0.6873,0.6872,0.6874,0.6901,0.6902,0.6903,0.6903,0,0.6771,0.6769,0.6782,0.6795,0.6806,0.6816,0.6825,0.6833,0.6829,0.6841,0.6857,0.6867,0.6886,0.6902,0.6916,0.692,0.6911,0.691,0.6916,0.6917,0.6917,0.6917,0.6846,0.6908,0.6908,0.6908,0.6907,0.6907,0.6812,0.6826,0.6833,0.6848,0.6854,0.6863,0.6876,0.6878,0.6892,0.6906,0.6902,0.6922,0.6929,0.6947,0.6952,0.6967,0.6958,0.6967,0.6969,0.697,0.6973,0.6915,0.697,0.697,0.6969,0.6969,0.6969,0,0.6867,0.687,0.6884,0.6897,0.6909,0.6899,0.6908,0.6919,0.6936,0.6944,0.6956,0.6975,0.6991,0.6993,0.7008,0.7019,0.7016,0.7023,0.7022,0.7023,0.698,0.6973,0.7026,0.7026,0.7026,0.7026,0.7026,0.7026,0.6896,0.692,0.6919,0.6946,0.695,0.6968,0.6974,0.6982,0.6988,0.701,0.7022,0.7024,0.703,0.7045,0.7059,0.7059,0.7065,0.7074,0.7073,0.7032,0.7026,0.7021,0.7015,0.7075,0.7076,0.7115,0.7115,0.7116]},{"header":{"parameterUnit":"m.s-1","parameterCategory":1,"la1":30.2991,"la2":30.254,"lo1":-89.0895,"lo2":-89.0444,"dy":0.0017,"dx":0.0017,"nx":28,"ny":28,"refTime":"2024-05-26T21:00:00:Z","depth":0,"parameterNumber":3,"parameterNumberName":"V-component_of_WINDS"},"data":[0,0,0,0,0,0,0,0,0,0,0,0,0,0,0,0,0,0,0,0,0,0,0,0,0,0,0,0,0,0,0,0,0,0,0,0,0,0,0,0,0,0,0,0,0,0,0,0,0,0,0,0,0,0,0,0,0,0,6.9553,6.9554,0,6.9667,6.9668,6.9669,6.9618,6.9615,6.9613,6.961,6.9719,6.9724,6.9729,0,0,0,0,0,0,0,0,0,0,0,0,0,6.9284,6.929,6.9553,6.9554,6.9556,6.9667,6.9668,6.967,6.9619,6.9615,6.9612,6.9609,6.9717,6.9723,6.973,0,0,0,0,0,0,0,0,0,0,0,0,0,6.94,6.9291,6.9553,6.9544,6.9544,6.9666,6.9668,6.967,6.9619,6.9615,6.9611,6.9607,6.9715,6.9723,6.9731,6.9866,0,0,6.9756,6.9759,0,0,0,0,0,0,0,0,6.9393,6.941,6.9544,6.9545,6.9545,6.9624,6.9613,6.9735,6.962,6.9591,6.961,6.9605,6.969,6.97,6.973,6.9871,6.9875,6.9757,6.9762,6.9765,6.9768,0,0,0,0,0,0,0,6.9385,6.9404,6.9598,6.9546,6.9547,6.9532,6.9544,6.9636,6.9662,6.9593,6.9589,6.9604,6.9689,6.9722,6.9732,6.9877,6.9756,6.9764,6.9769,6.9772,7.0134,7.0139,0,0,0,0,0,0,6.9379,6.9398,6.9594,6.9601,6.9458,6.954,6.9553,6.9603,6.9661,6.9666,6.9608,6.9601,6.971,6.9723,6.9736,6.9898,6.9765,6.9773,6.9778,7.0129,7.0135,7.014,0,0,0,0,0,0,6.9373,6.9397,6.9589,6.9499,6.9522,6.9549,6.9605,6.9607,6.964,6.9672,6.9676,6.9637,6.9708,6.9724,6.9834,6.9901,6.9777,6.9784,7.0124,7.0131,7.0138,7.0224,0,0,0,0,0,0,6.9366,6.9395,6.9448,6.9501,6.9527,6.9688,6.961,6.9613,6.9656,6.9649,6.9701,6.9705,6.9706,6.9822,6.9843,6.991,6.9791,7.0118,7.0127,7.0135,7.0215,7.0233,7.0248,0,0,0,0,0,6.9356,6.9466,6.9451,6.9475,6.9595,6.9692,6.9707,6.9708,6.9661,6.9714,6.9735,6.9704,6.9891,6.9834,6.9856,6.9928,7.0114,7.0125,7.0135,7.0208,7.0229,7.0248,0,0,0,0,0,0,6.9417,6.9472,6.9457,6.9587,6.9636,6.9684,6.975,6.9731,6.9791,6.9782,6.9777,6.979,6.9904,6.9926,6.9862,7.0062,6.9995,7.001,7.0043,7.0064,7.008,7.0072,6.9797,0,0,0,0,0,6.9446,6.9523,6.9566,6.9677,6.9703,6.9723,6.9765,6.9762,6.9811,6.983,6.9858,6.9905,6.9975,7.002,7.0086,7.0218,7.0229,7.0278,7.0295,7.0308,7.0321,7.0393,7.0416,7.0175,7.0175,7.0174,0,0,6.9506,6.9546,6.9594,6.9691,6.9728,6.9806,6.974,6.9825,6.9882,6.9842,6.9949,6.9971,7.0023,7.0145,7.02,7.0168,7.0391,7.0322,7.0332,7.0338,7.0407,7.0429,7.045,7.0182,7.0181,7.0179,0,0,6.9655,6.9694,6.9791,6.9831,6.9889,6.9902,6.9925,6.9977,6.9991,7.0099,7.0071,7.0137,7.0257,7.0295,7.0331,7.0496,7.047,7.0518,7.0604,7.0674,7.0693,7.071,7.0769,7.079,7.0531,7.0531,7.0531,0,6.9722,6.9841,6.9842,6.9931,6.9974,6.9944,7.0041,7.0079,7.0155,7.0184,7.0147,7.0298,7.033,7.0461,7.0502,7.0532,7.0557,7.0511,7.0691,7.0707,7.0723,7.078,7.0802,7.0536,7.0536,7.0535,7.0535,0,6.9919,7.0002,7.0073,7.0151,7.0202,7.0294,7.0308,7.0358,7.0351,7.0367,7.0476,7.0515,7.0588,7.0619,7.0611,7.0749,7.0728,7.0691,7.0624,7.0752,7.0805,7.0826,7.0544,7.0542,7.0541,7.0539,0,0,7.0109,7.0189,7.0214,7.025,7.0313,7.0376,7.0466,7.0541,7.0585,7.0638,7.0713,7.0816,7.0783,7.0823,7.0819,7.0881,7.101,7.0837,7.0838,7.0868,7.1165,7.1193,7.1218,7.0994,7.0998,7.1001,7.1161,0,7.0263,7.0425,7.043,7.0577,7.0653,7.0627,7.0706,7.0752,7.0769,7.0835,7.0853,7.0926,7.0877,7.0901,7.0961,7.0982,7.107,7.097,7.1062,7.1065,7.105,7.1245,7.1274,7.1423,7.1182,7.1185,7.1188,0,7.0464,7.0528,7.0684,7.0738,7.077,7.0841,7.091,7.0974,7.1025,7.1033,7.108,7.1067,7.1157,7.1088,7.1212,7.1145,7.1182,7.1198,7.1204,7.1212,7.1134,7.1259,7.1471,7.1493,7.122,7.1218,7.1215,0,7.0587,7.0712,7.0821,7.0852,7.0918,7.0968,7.0997,7.1045,7.109,7.115,7.1179,7.1247,7.1284,7.1337,7.1342,7.1291,7.1467,7.1398,7.1475,7.1476,7.1513,7.1511,7.1734,7.1538,7.1537,7.1537,7.1537,0,7.0759,7.0855,7.0878,7.0945,7.1052,7.1056,7.1161,7.1185,7.1228,7.1298,7.1279,7.1344,7.1348,7.1415,7.1419,7.1521,7.1538,7.1546,7.1546,7.1548,7.1547,7.1572,7.1562,7.1543,7.1542,7.154,7.1539,0,7.0914,7.0934,7.1051,7.1105,7.112,7.1197,7.1241,7.1305,7.1321,7.141,7.1431,7.1456,7.1534,7.1545,7.1635,7.1638,7.1761,7.175,7.1745,7.1743,7.182,7.1813,7.2067,7.2101,7.1882,7.1885,7.1886,0,7.1023,7.1097,7.1159,7.1207,7.1239,7.1315,7.1362,7.1368,7.1417,7.1483,7.1538,7.1615,7.1676,7.1802,7.1826,7.1895,7.1886,7.197,7.1896,7.1896,7.1887,7.1883,7.189,7.1984,7.1987,7.1989,7.199,0,7.1213,7.1219,7.1289,7.1363,7.1421,7.1478,7.1532,7.1571,7.1584,7.164,7.1722,7.177,7.1864,7.194,7.2009,7.2035,7.2015,7.2014,7.2035,7.2038,7.2032,7.2037,7.1784,7.2008,7.2006,7.2005,7.2004,7.2003,7.1348,7.1413,7.1468,7.1547,7.1589,7.1641,7.1704,7.1729,7.1798,7.1877,7.1876,7.1965,7.2014,7.2105,7.2138,7.2206,7.2178,7.2209,7.2217,7.2225,7.2233,7.2022,7.2218,7.2218,7.2217,7.2217,7.2217,0,7.1537,7.1572,7.1645,7.1723,7.1785,7.1764,7.1823,7.1875,7.1955,7.2004,7.2067,7.216,7.2234,7.2265,7.2338,7.2386,7.2379,7.2405,7.2401,7.2408,7.2253,7.2228,7.241,7.241,7.241,7.241,7.241,7.241,7.1643,7.1753,7.1766,7.1896,7.1929,7.2019,7.2055,7.2102,7.2141,7.2248,7.2311,7.2332,7.2374,7.2449,7.2516,7.2523,7.255,7.2581,7.2584,7.2438,7.2419,7.24,7.2376,7.2587,7.2587,7.2733,7.2734,7.2735]}]]